Wind_Speed
10 16 21 24 28 38 30 41 42 41 41 39 43 47 47 46 45 42 33 38 40 28
8 7 9 14 20 24 28 31 34 35 39 40 44 43 43 49 48 42 39 33 33 39
8 9 9 8 9 12 17 21 25 28 31 34 31 38 38 44 48 43 37 31 30 30
11 12 10 9 10 12 12 15 18 23 26 28 31 34 35 36 35 35 32 31 21 23
12 12 11 7 8 10 10 10 11 13 15 16 17 20 23 27 26 25 23 22 21 18
9 9 10 8 6 6 7 6 6 6 9 12 14 15 18 21 22 23 25 26 24 25
4 3 3 4 4 4 4 3 4 5 10 15 17 19 18 18 18 20 22 22 21 19
2 3 4 6 7 7 5 5 5 7 8 10 11 14 15 13 12 14 16 16 17 17
6 4 6 7 8 7 5 5 6 6 8 8 7 8 10 11 16 16 14 16 17 16
11 14 16 14 10 7 7 9 10 9 10 11 10 13 13 13 12 13 13 13 13 13
13 10 11 13 14 12 13 10 11 12 11 11 13 11 10 10 9 8 10 12 13 13
9 5 5 11 17 18 16 11 13 11 12 12 12 12 12 15 13 12 12 8 9 10
9 8 4 5 18 17 16 18 19 17 15 16 14 19 17 16 10 8 8 12 17 17
9 11 3 4 8 12 10 9 7 9 11 11 11 13 17 19 16 11 10 10 9 11
Wind_Direction
302 271 264 260 263 253 263 253 256 256 253 250 251 246 243 238 234 232 228 228 226 228
301 285 270 262 258 258 252 249 246 251 259 259 250 245 250 246 239 229 221 221 229 226
334 319 304 291 272 262 268 264 265 262 252 246 252 250 247 236 232 224 217 214 215 226
315 312 310 306 292 282 272 266 260 259 258 264 255 257 248 235 229 222 222 221 204 197
296 294 298 290 279 281 275 261 256 250 251 250 245 240 233 223 211 197 181 171 171 180
299 287 279 265 246 239 236 245 241 222 217 210 199 185 184 181 176 173 175 170 159 151
346 328 284 273 258 250 232 221 205 195 197 186 175 171 172 179 182 189 191 187 175 168
338 289 263 245 225 207 201 183 176 182 178 189 193 200 193 185 187 193 188 173 147 135
194 213 254 241 213 197 199 178 183 151 146 136 132 155 166 146 137 133 138 135 136 148
282 261 252 248 203 174 182 182 179 167 158 151 148 139 125 126 129 142 147 142 151 149
271 263 262 234 208 185 181 186 182 174 174 169 166 150 141 134 139 146 163 170 174 152
230 218 248 237 206 188 173 172 167 164 168 164 171 168 178 168 167 164 164 180 193 187
227 227 202 283 217 228 221 208 189 202 192 187 175 184 197 193 183 200 199 219 207 200
202 188 246 75 123 148 150 158 145 174 193 195 181 205 193 193 207 219 229 209 228 225
Height
1496 1498 1498 1499 1498 1500 1503 1504 1507 1506 1507 1508 1513 1517 1519 1523 1524 1527 1530 1534 1538 1541
1494 1493 1492 1492 1493 1495 1495 1497 1498 1499 1500 1501 1503 1506 1512 1513 1515 1518 1521 1523 1527 1531
1495 1493 1491 1490 1488 1490 1491 1492 1493 1494 1495 1498 1491 1499 1500 1503 1505 1503 1508 1510 1514 1521
1495 1494 1492 1490 1488 1488 1487 1488 1488 1491 1492 1491 1490 1487 1491 1497 1500 1494 1502 1505 1504 1513
1494 1493 1491 1490 1490 1489 1488 1487 1488 1489 1488 1487 1488 1490 1491 1494 1495 1493 1497 1502 1502 1509
1493 1492 1492 1491 1490 1491 1490 1489 1488 1488 1487 1489 1490 1493 1495 1494 1496 1492 1495 1500 1504 1503
1494 1493 1493 1493 1492 1492 1492 1491 1490 1489 1491 1491 1492 1495 1498 1498 1496 1497 1498 1503 1503 1505
1496 1495 1494 1494 1493 1492 1492 1492 1491 1492 1492 1494 1494 1496 1497 1497 1499 1501 1504 1506 1506 1511
1496 1496 1496 1495 1494 1493 1493 1494 1494 1493 1494 1495 1496 1497 1499 1499 1502 1505 1509 1509 1509 1515
1495 1495 1494 1493 1493 1493 1494 1495 1495 1495 1496 1497 1498 1499 1500 1502 1506 1509 1513 1511 1515 1518
1493 1492 1492 1492 1492 1491 1493 1495 1495 1496 1497 1497 1499 1501 1503 1504 1508 1511 1514 1516 1519 1520
1491 1491 1491 1491 1491 1492 1492 1493 1495 1495 1497 1499 1500 1503 1505 1508 1511 1513 1515 1517 1520 1522
1489 1490 1491 1489 1489 1490 1492 1493 1494 1496 1498 1499 1502 1504 1507 1508 1510 1514 1515 1517 1517 1520
1489 1491 1491 1490 1489 1490 1491 1492 1494 1495 1497 1500 1502 1505 1507 1509 1510 1513 1513 1515 1516 1517